Location: Jihlava
(49.4000°N, 15.5830°E)
Time: 21:19:48
(UTC+02:00)

ISS - Visible Passes

Search period start: 12 May 2026 00:00
Search period end: 22 May 2026 00:00
Orbit: 414 x 424 km, 51.6° (Epoch: 12 May)

Date Brightness Start Highest point End Pass type
(mag) Time Alt. Az. Time Alt. Az. Time Alt. Az.
12 May -1.7 00:58:08 10° WNW 00:59:21 21° WNW 00:59:21 21° WNW visible
12 May -3.3 22:33:31 10° W 22:36:50 61° N 22:40:10 10° ENE visible
13 May -3.3 00:10:30 10° WNW 00:13:26 59° NW 00:13:26 59° NW visible
13 May -3.5 21:45:49 10° W 21:49:09 70° NNW 21:52:30 10° ENE visible
13 May -3.3 23:22:52 10° WNW 23:26:10 60° N 23:27:26 33° ENE visible
14 May -1.3 00:59:42 10° WNW 01:00:22 15° WNW 01:00:22 15° WNW visible
14 May -3.1 22:35:10 10° WNW 22:38:28 56° N 22:41:23 13° E visible
15 May -2.8 00:12:02 10° WNW 00:14:19 40° W 00:14:19 40° W visible
15 May -3.1 21:47:27 10° W 21:50:45 56° N 21:54:03 10° ENE visible
15 May -3.8 23:24:23 10° WNW 23:27:44 83° NNE 23:28:15 61° E visible
16 May -3.5 22:36:43 10° WNW 22:40:03 69° NNE 22:42:10 20° E visible
17 May -1.9 00:13:36 10° W 00:15:05 22° W 00:15:05 22° W visible
17 May -3.3 21:49:01 10° WNW 21:52:20 60° N 21:55:39 10° E visible
17 May -3.6 23:25:52 10° WNW 23:29:01 54° SW 23:29:01 54° SW visible
18 May -3.9 22:38:09 10° WNW 22:41:30 76° SSW 22:42:56 31° ESE visible
19 May -1.1 00:15:32 10° W 00:15:52 12° W 00:15:52 12° W visible
19 May -3.7 21:50:27 10° WNW 21:53:49 83° NNE 21:56:52 12° ESE visible
19 May -2.3 23:27:30 10° W 23:29:48 25° SW 23:29:48 25° SW visible
20 May -3.1 22:39:38 10° W 22:42:47 38° SSW 22:43:45 30° S visible
21 May -3.5 21:51:52 10° WNW 21:55:09 55° SSW 21:57:43 15° SE visible
21 May -1.2 23:29:59 10° WSW 23:30:39 11° WSW 23:30:39 11° WSW visible
